Tracking 29594 objects as of 20-Sep-2024
HD Live streaming from Space Station
objects crossing your sky now

FENGYUN 1C DEB

Track FENGYUN 1C DEB now!
10-day predictions


NORAD ID: 31993
Int'l Code: 1999-025CPW
Perigee: 841.3 km
Apogee: 1,498.9 km
Inclination: 99.2 °
Period: 108.6 minutes
Semi major axis: 7541 km
RCS: 0.0118 m2 (small)
Launch date: May 10, 1999
Source: People's Republic of China (PRC)
Launch site: Taiyaun Space Center, China (TSC)

Note: This is SATELLITE DEBRIS
Your satellite tracking list
Your tracking list is empty




NASA's NSSDC Master Catalog

Two Line Element Set (TLE):
1 31993U 99025CPW 24262.86045753  .00001641  00000-0  22923-2 0  9996
2 31993  99.2250 277.2728 0435980 147.8489 215.0033 13.25719400829778
Source of the keplerian elements: AFSPC